GFSFLT2_500_rhum_000.txt.gz
RH
52 60 50 46 47 49 42 48 58 53 54 42 42 43 53 64 70 89 82 82 86 80 73 78 75 77 77 86 94 78 67 70
18 21 26 28 26 29 33 32 40 36 16 12 10 32 63 52 71 75 83 88 84 84 78 74 77 74 73 86 95 94 86 70
11 15 19 25 24 20 13 8 5 11 9 1 4 5 26 78 68 86 88 77 78 84 74 80 86 74 67 65 72 72 91 89
9 15 15 10 7 7 7 5 8 11 13 12 8 11 25 47 88 97 100 99 90 88 84 86 91 85 73 60 60 60 90 96
10 12 12 11 11 12 13 13 14 16 16 17 21 18 19 33 69 97 97 97 92 91 98 99 97 78 74 57 54 58 64 94
37 27 27 29 36 43 43 40 35 32 33 35 43 49 58 64 73 89 95 98 96 97 96 95 97 94 80 72 67 78 86 94
28 22 16 11 6 2 1 1 1 1 2 3 2 6 14 26 41 61 92 97 97 98 98 99 94 98 97 82 65 71 95 89
6 5 6 6 7 7 7 8 8 8 8 9 8 8 8 7 5 7 20 74 96 96 97 98 98 99 94 95 84 70 75 78
8 8 8 9 10 11 12 11 11 11 10 10 12 13 13 13 12 11 10 12 30 22 74 97 98 98 98 98 97 94 80 61
10 11 12 12 13 14 17 17 17 16 14 14 12 13 14 13 14 16 16 14 16 15 15 22 39 53 96 98 100 99 98 96
18 17 17 16 18 20 20 21 22 23 21 19 20 18 16 17 16 15 17 19 20 20 18 20 18 20 21 68 72 65 83 87
27 27 26 28 29 30 29 27 25 22 20 19 20 20 20 22 24 23 19 18 20 22 21 18 19 19 23 22 32 33 27 29
38 38 39 41 42 41 38 34 31 29 23 21 19 17 18 23 24 25 24 20 22 23 22 20 19 19 20 17 18 16 16 19
33 33 33 34 36 39 38 37 36 31 32 34 36 38 40 37 36 33 29 26 21 22 20 23 24 21 20 14 15 16 16 17
34 35 39 44 46 48 49 48 50 49 53 56 52 58 56 58 54 47 42 40 35 28 19 21 22 23 26 25 21 18 19 18
39 44 46 52 62 66 69 67 72 76 78 72 74 73 67 63 68 67 55 49 48 49 48 35 26 26 26 24 28 26 22 21
34 35 39 41 48 57 64 73 79 80 86 88 88 91 83 80 78 89 80 72 70 72 74 67 58 50 47 45 40 37 32 26
36 39 40 44 50 58 72 81 86 97 100 99 98 96 86 84 88 89 94 93 87 80 73 68 68 66 61 56 50 43 39 35
49 53 56 57 62 70 76 90 99 100 100 100 100 98 92 95 99 100 96 86 78 67 58 52 57 67 68 62 54 45 38 32
52 62 69 71 78 79 83 99 100 100 100 100 100 100 98 97 98 96 85 72 66 65 61 56 57 54 53 43 32 26 23 19

GFSFLT2_500_rhum_003.txt.gz
RH
51 27 16 20 39 41 42 42 40 33 30 38 60 53 44 31 26 36 62 64 71 89 71 65 70 78 70 77 90 99 99 88
14 13 14 14 18 19 21 25 34 45 35 21 24 27 21 5 0 0 8 64 64 72 100 88 70 75 75 77 64 80 89 97
3 1 2 8 14 18 16 10 8 10 10 6 4 4 3 1 0 0 11 30 69 73 94 98 88 79 75 86 80 74 77 81
6 7 6 6 7 6 8 11 13 15 13 14 14 14 14 14 13 14 13 15 30 52 94 90 96 99 95 96 97 76 76 76
24 40 42 24 15 19 22 28 31 34 34 34 32 32 35 39 41 50 51 44 50 57 88 94 94 93 99 96 89 90 82 74
30 26 19 22 28 21 7 4 3 3 1 2 4 4 5 4 3 14 28 46 43 57 89 98 90 96 94 98 100 100 93 75
8 6 5 5 5 5 6 6 6 6 5 4 4 4 4 4 4 4 5 6 10 14 82 98 99 98 94 98 96 98 97 88
7 7 7 7 7 8 8 8 8 8 7 6 6 5 5 5 5 5 6 7 9 13 27 84 95 97 99 98 98 97 99 97
9 10 10 11 12 12 12 14 14 14 12 10 8 8 9 10 9 8 7 8 9 10 12 18 37 83 87 95 96 97 98 98
27 26 24 24 23 22 22 21 21 22 23 23 23 19 18 18 20 18 18 17 17 17 19 16 17 19 37 61 85 89 97 97
27 29 30 30 29 28 31 30 28 29 28 26 24 23 23 23 27 29 34 34 29 29 27 24 20 18 20 22 29 39 78 56
28 29 29 30 34 36 35 33 36 36 32 30 30 29 30 31 32 38 43 46 43 38 37 32 30 25 22 18 16 25 24 37
18 21 22 26 24 29 28 33 35 36 37 37 41 41 42 42 45 44 41 43 46 54 51 45 41 35 34 29 25 26 22 18
20 22 18 20 20 22 24 24 27 31 32 30 40 41 53 63 57 52 48 48 50 48 47 53 53 47 43 40 39 37 35 19
23 22 25 26 30 31 33 35 38 38 39 40 40 49 61 68 81 87 77 67 66 61 60 56 51 52 49 47 40 35 32 28
28 29 30 32 38 47 49 58 74 82 75 68 70 70 62 63 62 66 72 84 83 67 60 65 66 64 57 54 48 43 38 25
35 37 39 42 46 58 66 75 96 96 97 94 96 96 94 90 92 90 84 87 85 87 78 79 96 83 72 66 63 60 56 51
47 46 50 50 61 71 78 82 94 100 98 98 100 100 100 100 100 100 100 98 100 100 99 100 100 100 100 94 82 74 68 62
51 54 54 60 60 71 81 90 100 100 97 100 100 100 100 100 100 100 100 100 99 100 100 99 100 100 100 100 96 79 65 58
60 58 59 69 74 76 89 94 95 91 94 100 100 100 100 100 100 100 100 100 99 99 97 88 84 80 82 86 80 71 59 53

GFSFLT2_500_rhum_009.txt.gz
RH
12 12 19 17 9 9 8 9 6 6 9 10 12 11 10 10 10 7 5 4 6 6 8 3 1 0 2 13 78 66 59 54
5 5 5 7 5 4 6 7 4 6 7 6 7 7 11 14 11 9 9 7 9 10 10 11 7 8 11 10 30 80 80 54
14 19 16 11 16 27 30 35 22 7 11 20 24 25 28 29 26 23 22 22 20 20 20 21 25 27 28 22 17 38 60 94
27 28 26 20 12 13 24 32 39 20 12 4 4 4 5 6 7 6 5 5 4 5 5 6 6 10 15 33 28 38 31 51
4 5 4 4 4 4 4 4 5 6 6 6 6 5 5 5 5 6 5 5 5 5 6 8 8 6 7 8 8 17 28 40
7 6 6 6 6 6 6 6 7 8 8 7 8 7 7 7 6 7 10 10 9 7 8 7 9 8 6 6 6 7 64 79
16 16 16 15 14 13 13 14 14 14 14 14 14 15 14 14 14 14 13 13 14 15 20 22 20 22 19 12 8 6 32 96
25 25 26 26 28 27 27 28 28 29 29 28 29 28 29 32 32 34 35 31 32 32 34 33 31 28 26 22 18 18 13 13
26 26 29 25 27 27 23 29 27 26 29 30 26 28 28 30 30 31 31 33 32 33 36 39 41 42 41 33 27 22 20 19
17 14 14 14 15 16 16 18 18 19 22 25 25 27 30 30 31 32 31 35 43 51 50 40 38 43 44 46 46 41 31 21
14 15 16 17 18 18 18 18 20 20 23 27 28 29 30 30 33 36 37 38 42 56 62 69 66 49 43 47 52 53 52 41
19 22 28 34 38 39 34 31 28 27 27 27 35 38 39 38 42 52 55 53 53 63 68 69 70 75 69 53 53 62 58 58
34 35 37 41 45 49 48 41 40 40 42 37 34 42 51 53 52 54 58 64 70 81 77 70 70 74 72 74 68 67 68 63
46 47 53 60 61 57 56 53 51 50 50 52 52 52 49 48 64 64 66 69 76 79 76 74 68 65 71 70 72 79 75 76
58 57 58 59 59 62 62 59 58 61 59 61 62 57 57 56 58 64 71 74 77 77 79 77 74 76 76 80 81 79 88 98
67 69 67 64 58 54 59 74 74 72 81 91 81 76 80 81 75 68 70 71 67 68 70 80 82 85 91 99 92 84 84 92
73 70 78 73 73 73 72 74 80 86 96 97 97 89 83 75 72 68 64 59 59 64 72 87 100 100 90 90 95 91 90 87
59 60 63 68 75 77 77 74 78 85 97 96 96 90 88 81 70 60 61 70 91 98 99 98 100 95 94 86 88 94 90 94
53 58 59 64 63 62 67 68 67 72 80 87 97 96 84 68 77 90 100 100 100 100 100 100 97 100 95 87 85 86 91 83
60 73 58 72 86 82 79 76 75 72 74 78 77 74 55 62 87 100 100 100 100 100 99 100 100 100 93 94 90 90 96 97

GFSFLT2_500_rhum_012.txt.gz
RH
6 7 6 5 5 6 6 5 4 3 3 5 8 9 8 7 7 8 8 7 8 13 9 7 9 8 7 4 10 20 88 79
8 9 8 12 12 9 7 6 9 26 19 5 5 8 16 23 24 25 25 21 20 17 16 18 22 25 22 21 15 14 60 40
27 26 26 30 27 24 24 28 28 33 34 22 19 14 9 6 7 6 5 6 5 6 7 8 6 5 7 13 33 42 26 30
4 6 6 6 5 5 6 6 6 5 4 4 4 4 4 4 4 4 4 4 4 5 6 7 7 8 7 6 9 12 20 26
7 7 6 6 7 7 7 7 7 7 8 8 9 9 8 8 7 7 8 8 8 8 9 8 8 8 9 7 6 6 6 7
17 16 15 14 14 13 13 13 13 13 14 14 14 14 15 16 16 17 18 19 20 21 20 21 21 18 13 10 8 8 6 5
24 24 23 21 20 22 24 23 24 26 24 23 24 24 24 25 28 30 29 28 28 30 28 27 27 28 27 25 19 12 9 8
20 19 19 18 20 19 19 19 20 19 20 21 23 23 24 25 27 27 28 29 31 32 32 31 29 29 29 28 27 26 25 20
18 18 17 18 19 19 20 21 21 23 23 24 23 24 25 26 28 30 32 34 38 42 44 46 53 62 61 57 50 39 35 30
16 17 18 21 24 29 35 41 45 46 45 42 38 36 36 36 39 37 35 36 39 41 48 51 50 49 53 62 72 65 51 40
22 28 32 35 37 39 41 44 48 52 52 50 46 42 42 43 44 46 44 46 51 49 50 54 56 59 62 66 68 69 70 58
30 34 35 38 45 47 52 54 52 51 51 52 51 51 50 49 48 51 55 56 61 62 64 66 69 69 67 72 72 69 67 74
44 49 52 54 55 57 58 58 58 56 51 49 54 60 64 63 61 62 64 66 68 72 75 79 79 72 71 68 69 69 72 74
70 77 80 82 76 72 67 63 64 62 62 60 58 59 65 71 77 74 73 75 79 82 81 78 76 74 68 65 60 65 66 66
69 73 82 86 69 62 61 64 64 66 65 65 63 60 65 70 71 72 65 56 60 67 71 68 66 64 61 62 60 61 70 94
60 64 67 62 58 53 54 55 59 67 66 67 69 69 68 66 60 56 54 54 56 57 56 47 44 58 78 98 89 77 74 63
64 64 62 55 50 51 51 52 54 56 69 71 72 68 68 70 67 66 65 65 58 50 42 35 34 54 76 99 100 100 89 78
74 67 60 57 56 59 61 69 69 70 77 80 82 77 77 82 80 75 67 58 47 38 34 35 40 57 67 83 92 93 96 81
74 69 64 65 70 73 85 85 79 76 77 77 78 68 64 71 74 68 55 50 45 53 59 75 87 76 81 78 86 90 88 84
69 72 74 79 78 75 76 79 81 87 84 80 78 80 76 72 66 62 56 64 100 99 100 98 93 94 99 100 98 99 100 95

GFSFLT2_500_rhum_015.txt.gz
RH
8 7 6 7 8 9 7 7 6 6 5 13 13 6 8 7 8 10 12 17 20 21 19 19 18 17 18 15 9 6 3 33
15 14 21 25 28 28 22 22 25 28 27 34 35 20 18 21 24 28 29 22 9 6 5 4 5 4 9 9 22 22 14 12
11 12 16 18 7 5 5 6 6 8 11 14 10 4 5 5 5 5 5 5 5 5 5 5 5 5 4 5 6 12 32 31
7 6 5 5 6 7 8 7 7 7 7 6 6 6 6 7 8 8 8 8 9 10 10 11 10 10 8 6 5 5 6 16
12 12 12 12 14 15 16 16 15 15 15 16 16 17 18 18 18 19 20 22 23 23 24 24 24 24 24 18 10 7 6 7
12 16 20 20 22 24 26 27 26 26 25 23 23 23 21 20 22 26 27 28 27 28 31 31 33 36 38 39 32 23 14 8
10 12 14 15 16 17 18 19 20 20 20 20 21 21 21 22 23 24 25 25 26 27 29 30 30 28 26 26 31 34 29 23
19 17 16 17 17 18 21 24 30 37 42 45 47 48 45 39 31 27 27 27 28 29 31 32 33 34 36 36 37 40 40 39
20 19 19 24 31 35 38 36 36 37 39 43 48 49 47 48 48 46 43 42 43 44 41 38 38 37 37 41 46 46 42 47
36 44 49 50 47 45 42 41 46 51 54 54 51 48 48 49 50 50 50 50 50 49 50 54 52 50 50 48 49 52 50 51
40 46 49 46 46 49 53 55 53 52 52 54 54 52 50 48 48 48 49 55 59 60 61 61 64 64 62 60 61 65 64 61
48 58 60 58 58 59 60 57 58 60 59 55 51 51 52 54 54 52 51 50 55 60 65 69 76 79 77 75 72 71 71 69
64 62 60 64 68 70 66 60 58 60 57 53 57 62 63 59 57 55 54 56 60 66 69 72 76 79 79 78 78 74 70 62
58 59 66 68 65 61 62 62 62 58 56 51 47 46 51 60 67 70 69 68 72 77 84 87 87 86 80 76 70 68 62 58
60 65 67 62 56 55 57 62 61 58 58 53 50 48 52 58 65 70 71 68 65 62 60 60 66 70 69 64 57 51 48 47
66 75 70 67 63 58 51 56 54 50 47 50 56 60 59 58 59 61 61 59 56 54 53 51 54 62 60 54 48 42 38 35
84 82 72 64 66 65 66 62 60 55 57 57 54 53 53 53 58 61 60 62 61 62 62 60 60 62 60 54 45 35 32 31
65 67 67 71 71 71 64 62 57 53 50 48 49 51 54 57 66 76 79 83 79 72 68 65 65 63 57 49 33 30 27 36
71 71 70 65 60 58 56 52 51 48 47 46 46 47 48 52 67 74 80 84 80 76 74 69 64 57 58 52 54 53 70 73
70 67 59 56 56 56 54 55 54 52 50 48 47 44 40 42 60 70 72 69 63 56 62 45 78 100 100 100 98 100 99 89